{"data":{"norad_id":53662,"epoch":"2026-05-25T04:00:03.998880Z","epoch_age_seconds":57685,"freshness":"FRESH","line1":"1 53662U 22105Q   26145.16671295  .00107622  00000+0  26516-2 0  9996","line2":"2 53662  97.6030  27.9743 0001875  90.1087  76.1191 15.40156572  5867","mean_motion":15.40156572,"eccentricity":0.0001875,"inclination_deg":97.603,"raan_deg":27.9743,"arg_perigee_deg":90.1087,"mean_anomaly_deg":76.1191,"bstar":0.0026516,"rev_number":586,"period_min":93.496987655616,"perigee_km":444.36734969514,"apogee_km":446.92626862358,"semimajor_km":6823.7838091594,"source":"CELESTRAK","updated_at":"2026-05-25T13:38:17.487002Z"}}